Regional Weather Roundup
Issued by NWS Goodland, KS

Home | Current Version | Previous Version | Graphics & Text | Print | Product List | Glossary On
Versions: 1 2 3 4 5 6 7 8 9 10 11 12 13 14 15 16 17 18 19 20 21 22 23 24 25 26 27 28 29 30 31 32 33 34 35 36 37 38 39 40 41 42 43 44 45 46 47 48 49 50
000
ASUS43 KGLD 240108
RWRGLD

GOODLAND FORECAST AREA HOURLY WEATHER ROUNDUP
NATIONAL WEATHER SERVICE GOODLAND KS
600 PM MST THU NOV 23 2017

...OFFICIAL OBSERVATIONS...

CITY           SKY/WX    TMP DP  RH WIND       PRES   REMARKS
GOODLAND KS    CLOUDY    60  37  42 SW12      29.93F
HILL CITY KS   CLOUDY    57  40  52 SW7       29.89F
IMPERIAL NEB   CLOUDY    55  34  45 SW8       29.87F
MCCOOK NEB     CLOUDY    60  40  47 SW5       29.86F
AKRON CO       CLOUDY    52  26  36 SW8       29.95F
BURLINGTON CO  CLOUDY    52  36  54 SW9       29.97F
LIMON CO       CLOUDY    50  32  50 VRB3      30.02S
$$

...UNOFFICIAL OBSERVATIONS...

CITY           SKY/WX    TMP DP  RH WIND       PRES   REMARKS
COLBY KS       CLOUDY    55  41  58 SW6       29.92F
LENORA KS        N/A     64  32  30 SW9         N/A
NORTON KS      CLEAR     54  34  47 SW6       29.86
SHARON SPRINGS   N/A     56  39  53 SW5         N/A
KIT CARSON CO    N/A     53  34  49 CALM        N/A
YUMA CO        FAIR      48  23  37 SW8       29.92F
$$



USA.gov is the U.S. government's official web portal to all federal, state and local government web resources and services.